User: anonymous   Login
Location: Cuiry
(49.3858°N, 3.7708°E)
Time: 09:03:07
(UTC+00:00)
Language:

Meteor 2-15 Rocket - Orbit

View from above orbital plane
View from above orbital plane
View from above satellite
View from above satellite

Ground track
Ground track

The orbit is defined by the following mean orbital elements,

1 17291U          26075.96623606 +.00000000 +00000-0 +11565-4 0 00003
2 17291  82.4714 174.7605 0012548  88.2013 272.0585 13.84688475    03
Epoch (UTC): 16 March 2026 23:11:22
Eccentricity: 0.0012548
inclination: 82.4714°
perigee height: 938 km
apogee height: 956 km
right ascension of ascending node: 174.7605°
argument of perigee: 88.2013°
revolutions per day: 13.84688475
mean anomaly at epoch: 272.0585°

The dashed part of the orbit path shows where the satellite is in the earth's shadow,  

DLR